When you browse on this site, cookies collect data to enhance your experience and personalize the content and advertising you see.
Visit our Privacy Policy to learn more. By continuing to use the site, you agree to this use of cookies and data.
  • In Czech Republic
  • List of Countries
  • For 7 days
  • Water Temperature
  • Satellite Maps
  • Weather Map
  • Weather Widgets
  • user-avatar
    Login

    Hourly Weather Kipungo

    Today, 16 December, Sunday

    Time Temperature Precipitation Wind Pressure Humidity
    00:00 +21°C° 0 mm 2 mps 654 mmHg 64%
    01:00 +20°C° 0 mm 2 mps 653 mmHg 68%
    02:00 +19°C° 0 mm 2 mps 653 mmHg 71%
    03:00 +19°C° 0 mm 2 mps 653 mmHg 73%
    04:00 +18°C° 0 mm 2 mps 653 mmHg 75%
    05:00 +20°C° 0 mm 2 mps 654 mmHg 69%
    06:00 +21°C° 0 mm 2 mps 654 mmHg 63%
    07:00 +23°C° 0 mm 2 mps 655 mmHg 53%
    08:00 +27°C° 0 mm 2 mps 656 mmHg 43%
    09:00 +30°C° 0 mm 2 mps 656 mmHg 33%
    10:00 +35°C° 0 mm 2 mps 657 mmHg 23%
    11:00 +36°C° 0 mm 1 mps 657 mmHg 21%
    12:00 +40°C° 0 mm 1 mps 657 mmHg 18%
    13:00 +42°C° 0 mm 1 mps 657 mmHg 16%
    14:00 +40°C° 0 mm 1 mps 656 mmHg 18%
    15:00 +38°C° 0 mm 2 mps 655 mmHg 19%
    16:00 +36°C° 0 mm 2 mps 654 mmHg 21%
    17:00 +34°C° 0 mm 3 mps 654 mmHg 27%
    18:00 +31°C° 0 mm 3 mps 654 mmHg 32%
    19:00 +29°C° 0 mm 4 mps 654 mmHg 38%
    20:00 +27°C° 0 mm 4 mps 654 mmHg 43%
    21:00 +26°C° 0 mm 3 mps 655 mmHg 48%
    22:00 +24°C° 0 mm 3 mps 655 mmHg 54%
    23:00 +22°C° 0 mm 3 mps 655 mmHg 57%

    Tomorrow, 17 December, Monday

    Time Temperature Precipitation Wind Pressure Humidity
    00:00 +21°C° 0 mm 3 mps 654 mmHg 60%
    01:00 +20°C° 0 mm 2 mps 654 mmHg 63%
    02:00 +20°C° 0 mm 2 mps 654 mmHg 62%
    03:00 +19°C° 0 mm 2 mps 653 mmHg 61%
    04:00 +19°C° 0 mm 2 mps 653 mmHg 60%
    05:00 +20°C° 0 mm 2 mps 654 mmHg 57%
    06:00 +21°C° 0 mm 2 mps 654 mmHg 53%
    07:00 +23°C° 0 mm 2 mps 655 mmHg 50%
    08:00 +26°C° 0 mm 2 mps 656 mmHg 42%
    09:00 +29°C° 0 mm 2 mps 656 mmHg 35%
    10:00 +32°C° 0 mm 2 mps 657 mmHg 27%
    11:00 +35°C° 0 mm 2 mps 657 mmHg 25%
    12:00 +37°C° 0 mm 2 mps 656 mmHg 22%
    13:00 +39°C° 0 mm 1 mps 656 mmHg 20%
    14:00 +37°C° 0 mm 2 mps 655 mmHg 23%
    15:00 +35°C° 0 mm 2 mps 654 mmHg 26%
    16:00 +31°C° 0 mm 2 mps 653 mmHg 29%
    17:00 +30°C° 0 mm 3 mps 653 mmHg 34%
    18:00 +29°C° 0 mm 4 mps 653 mmHg 39%
    19:00 +27°C° 0 mm 4 mps 654 mmHg 43%
    20:00 +26°C° 0 mm 4 mps 654 mmHg 49%
    21:00 +25°C° 0 mm 4 mps 654 mmHg 55%
    22:00 +24°C° 0 mm 3 mps 655 mmHg 61%
    23:00 +22°C° 0 mm 3 mps 654 mmHg 66%

    Day after tomorrow, 18 December, Tuesday

    Time Temperature Precipitation Wind Pressure Humidity
    00:00 +21°C° 0 mm 2 mps 654 mmHg 70%
    01:00 +21°C° 0 mm 1 mps 654 mmHg 74%
    02:00 +20°C° 0 mm 1 mps 653 mmHg 76%
    03:00 +19°C° 0 mm 2 mps 653 mmHg 78%
    04:00 +18°C° 0 mm 2 mps 653 mmHg 80%
    05:00 +19°C° 0 mm 2 mps 654 mmHg 73%
    06:00 +20°C° 0 mm 2 mps 654 mmHg 67%
    07:00 +22°C° 0 mm 1 mps 655 mmHg 61%
    08:00 +25°C° 0 mm 2 mps 656 mmHg 50%
    09:00 +28°C° 0 mm 2 mps 656 mmHg 40%
    10:00 +31°C° 0 mm 2 mps 657 mmHg 29%
    11:00 +31°C° 0 mm 2 mps 656 mmHg 29%
    12:00 +32°C° 0 mm 1 mps 655 mmHg 28%
    13:00 +32°C° 0 mm 1 mps 655 mmHg 27%
    14:00 +32°C° 0 mm 2 mps 654 mmHg 28%
    15:00 +31°C° 0 mm 2 mps 653 mmHg 29%
    16:00 +31°C° 0 mm 3 mps 653 mmHg 30%
    17:00 +29°C° 0 mm 3 mps 653 mmHg 33%
    18:00 +28°C° 0 mm 3 mps 653 mmHg 35%
    19:00 +27°C° 0 mm 3 mps 653 mmHg 38%
    20:00 +25°C° 0 mm 3 mps 654 mmHg 42%
    21:00 +23°C° 0 mm 4 mps 654 mmHg 46%
    22:00 +22°C° 0 mm 4 mps 655 mmHg 51%
    23:00 +21°C° 0 mm 3 mps 654 mmHg 54%

    19 December, Wednesday

    Time Temperature Precipitation Wind Pressure Humidity
    00:00 +20°C° 0 mm 3 mps 654 mmHg 58%
    01:00 +19°C° 0 mm 2 mps 653 mmHg 61%
    02:00 +18°C° 0 mm 2 mps 653 mmHg 65%
    03:00 +18°C° 0 mm 2 mps 653 mmHg 68%
    04:00 +17°C° 0 mm 2 mps 652 mmHg 71%
    05:00 +18°C° 0 mm 2 mps 653 mmHg 67%
    06:00 +19°C° 0 mm 2 mps 654 mmHg 62%
    07:00 +20°C° 0 mm 2 mps 654 mmHg 58%
    08:00 +25°C° 0 mm 2 mps 655 mmHg 46%
    09:00 +28°C° 0 mm 2 mps 656 mmHg 35%
    10:00 +32°C° 0 mm 2 mps 657 mmHg 24%
    11:00 +34°C° 0 mm 2 mps 656 mmHg 22%
    12:00 +36°C° 0 mm 2 mps 656 mmHg 19%
    13:00 +38°C° 0 mm 2 mps 656 mmHg 17%
    14:00 +37°C° 0 mm 2 mps 655 mmHg 18%
    15:00 +36°C° 0 mm 2 mps 654 mmHg 19%
    16:00 +35°C° 0 mm 3 mps 653 mmHg 20%
    17:00 +33°C° 0 mm 3 mps 653 mmHg 24%
    18:00 +30°C° 0 mm 4 mps 653 mmHg 28%
    19:00 +28°C° 0 mm 4 mps 654 mmHg 32%
    20:00 +26°C° 0 mm 4 mps 654 mmHg 39%
    21:00 +25°C° 0 mm 4 mps 654 mmHg 46%
    22:00 +22°C° 0 mm 4 mps 654 mmHg 53%
    23:00 +21°C° 0 mm 3 mps 654 mmHg 57%

    20 December, Thursday

    Time Temperature Precipitation Wind Pressure Humidity
    00:00 +19°C° 0 mm 3 mps 653 mmHg 60%
    01:00 +18°C° 0 mm 2 mps 653 mmHg 63%
    02:00 +18°C° 0 mm 2 mps 653 mmHg 64%
    03:00 +17°C° 0 mm 2 mps 652 mmHg 65%
    04:00 +17°C° 0 mm 2 mps 652 mmHg 66%
    05:00 +19°C° 0 mm 1 mps 653 mmHg 61%
    06:00 +20°C° 0 mm 1 mps 654 mmHg 56%
    07:00 +21°C° 0 mm 1 mps 654 mmHg 50%
    08:00 +25°C° 0 mm 2 mps 655 mmHg 40%
    09:00 +28°C° 0 mm 2 mps 656 mmHg 29%
    10:00 +33°C° 0 mm 3 mps 656 mmHg 19%
    11:00 +34°C° 0 mm 3 mps 656 mmHg 17%
    12:00 +36°C° 0 mm 3 mps 656 mmHg 15%
    13:00 +38°C° 0 mm 3 mps 655 mmHg 13%
    14:00 +38°C° 0 mm 3 mps 655 mmHg 13%
    15:00 +38°C° 0 mm 2 mps 654 mmHg 14%
    16:00 +37°C° 0 mm 2 mps 653 mmHg 14%
    17:00 +35°C° 0 mm 3 mps 653 mmHg 19%
    18:00 +31°C° 0 mm 3 mps 653 mmHg 25%
    19:00 +28°C° 0 mm 4 mps 653 mmHg 31%
    20:00 +26°C° 0 mm 4 mps 653 mmHg 38%
    21:00 +24°C° 0 mm 3 mps 654 mmHg 46%
    22:00 +21°C° 0 mm 3 mps 654 mmHg 53%
    23:00 +20°C° 0 mm 3 mps 653 mmHg 57%

    21 December, Friday

    Time Temperature Precipitation Wind Pressure Humidity
    00:00 +19°C° 0 mm 3 mps 653 mmHg 62%
    01:00 +18°C° 0 mm 2 mps 653 mmHg 66%
    02:00 +17°C° 0 mm 2 mps 652 mmHg 68%
    03:00 +17°C° 0 mm 2 mps 652 mmHg 71%
    04:00 +16°C° 0 mm 1 mps 652 mmHg 73%
    05:00 +18°C° 0 mm 1 mps 653 mmHg 66%
    06:00 +20°C° 0 mm 1 mps 653 mmHg 58%
    07:00 +21°C° 0 mm 1 mps 654 mmHg 50%
    08:00 +24°C° 0 mm 2 mps 654 mmHg 40%
    09:00 +27°C° 0 mm 2 mps 655 mmHg 29%
    10:00 +31°C° 0 mm 2 mps 655 mmHg 18%
    11:00 +34°C° 0 mm 2 mps 655 mmHg 16%
    12:00 +36°C° 0 mm 3 mps 655 mmHg 13%
    13:00 +38°C° 0 mm 3 mps 655 mmHg 11%
    14:00 +37°C° 0 mm 3 mps 654 mmHg 11%
    15:00 +37°C° 0 mm 2 mps 653 mmHg 12%
    16:00 +36°C° 0 mm 2 mps 652 mmHg 13%
    17:00 +34°C° 0 mm 2 mps 652 mmHg 17%
    18:00 +30°C° 0 mm 3 mps 652 mmHg 21%
    19:00 +28°C° 0 mm 3 mps 652 mmHg 26%
    20:00 +26°C° 0 mm 3 mps 652 mmHg 36%
    21:00 +24°C° 0 mm 3 mps 652 mmHg 47%
    22:00 +21°C° 0 mm 3 mps 652 mmHg 57%
    23:00 +20°C° 0 mm 3 mps 652 mmHg 62%
    Show more